Le nostre stazioni meteo in Italia

Pubblicità
Il mio iltempo24.it
Chillingham Barns, Gran Bretagna (99196): Temperatura & dewpoint: 15.01.2018 08:00:00 - 21.01.2018 08:00:00 (GMT)Chillingham Barns, Gran Bretagna (99196): precipitazioni: 15.01.2018 08:00:00 - 21.01.2018 08:00:00 (GMT)
Data & Tempo tt [°C] td [°C] rr [mm]
21.01.2018 08:00:00 - - -
21.01.2018 07:00:00 -2,4 -3,5 0,0
21.01.2018 06:00:00 -2,7 -4,1 0,0
21.01.2018 05:00:00 -3,3 -4,4 0,0
21.01.2018 04:00:00 -3,7 -4,9 0,0
21.01.2018 03:00:00 -3,5 -4,5 0,0
21.01.2018 02:00:00 -3,2 -4,8 0,0
21.01.2018 01:00:00 -1,6 -4,0 0,0
21.01.2018 00:00:00 -1,6 -3,6 0,0
20.01.2018 23:00:00 -1,5 -3,7 0,0
20.01.2018 22:00:00 -1,4 -3,7 0,0
20.01.2018 21:00:00 -1,5 -3,2 0,0
20.01.2018 20:00:00 -1,1 -2,9 0,0
20.01.2018 19:00:00 -0,3 -2,4 0,0
20.01.2018 18:00:00 -0,9 -2,6 0,0
20.01.2018 17:00:00 -0,7 -2,5 0,0
20.01.2018 16:00:00 0,9 -1,6 0,0
20.01.2018 15:00:00 0,8 -1,7 0,0
20.01.2018 14:00:00 3,0 -0,8 0,0
20.01.2018 13:00:00 2,8 -0,5 0,0
20.01.2018 12:00:00 2,0 -0,9 0,0
20.01.2018 11:00:00 0,6 -1,3 0,0
20.01.2018 10:00:00 0,1 -1,8 0,0
20.01.2018 09:00:00 0,5 -1,9 0,0
20.01.2018 08:00:00 0,9 -1,5 0,0
20.01.2018 07:00:00 1,5 -1,0 0,0
20.01.2018 06:00:00 1,7 -0,9 0,0
20.01.2018 05:00:00 2,2 -1,0 0,0
20.01.2018 04:00:00 1,6 -1,0 0,0
20.01.2018 03:00:00 1,3 -1,5 0,0
20.01.2018 02:00:00 1,5 -1,1 0,0
20.01.2018 01:00:00 1,5 -0,8 0,0
20.01.2018 00:00:00 1,2 -1,2 0,0
19.01.2018 23:00:00 1,0 -1,9 0,0
19.01.2018 22:00:00 0,5 -1,9 0,0
19.01.2018 21:00:00 1,1 -1,5 0,0
19.01.2018 20:00:00 0,4 0,0 0,2
19.01.2018 19:00:00 1,2 0,1 0,4
19.01.2018 18:00:00 2,8 -0,9 0,0
19.01.2018 17:00:00 2,7 -1,0 0,0
19.01.2018 16:00:00 2,6 -1,0 0,0
19.01.2018 15:00:00 2,9 -1,1 0,0
19.01.2018 14:00:00 3,6 -1,2 0,0
19.01.2018 13:00:00 3,7 -0,5 0,0
19.01.2018 12:00:00 4,2 -0,6 0,0
19.01.2018 11:00:00 2,5 -1,2 0,0
19.01.2018 10:00:00 2,0 -1,5 0,0
19.01.2018 09:00:00 2,1 -1,7 0,0
19.01.2018 08:00:00 2,0 -1,3 0,0
19.01.2018 07:00:00 2,4 -1,3 0,0
19.01.2018 06:00:00 2,0 -1,2 0,0
19.01.2018 05:00:00 2,2 -1,0 0,0
19.01.2018 04:00:00 1,5 -1,4 0,0
19.01.2018 03:00:00 1,2 -1,8 0,0
19.01.2018 02:00:00 1,6 -1,2 0,0
19.01.2018 01:00:00 1,9 -0,9 0,0
19.01.2018 00:00:00 2,1 -0,6 0,0
18.01.2018 23:00:00 2,1 -0,6 0,0
18.01.2018 22:00:00 2,0 -0,9 0,0
18.01.2018 21:00:00 1,7 -1,2 0,0
18.01.2018 20:00:00 2,0 -0,7 0,0
18.01.2018 19:00:00 2,1 -0,5 0,0
18.01.2018 18:00:00 2,4 -0,3 0,0
18.01.2018 17:00:00 2,5 0,2 0,0
18.01.2018 16:00:00 2,8 -0,1 0,0
18.01.2018 15:00:00 3,5 0,4 0,0
18.01.2018 14:00:00 3,4 0,4 0,0
18.01.2018 13:00:00 3,6 0,1 0,0
18.01.2018 12:00:00 4,2 0,3 0,0
18.01.2018 11:00:00 2,3 0,1 0,0
18.01.2018 10:00:00 2,0 -0,1 0,0
18.01.2018 09:00:00 1,6 -0,6 0,0
18.01.2018 08:00:00 1,7 -0,6 0,0
18.01.2018 07:00:00 1,8 0,0 0,0
18.01.2018 06:00:00 1,7 0,5 0,2
18.01.2018 05:00:00 1,0 0,8 0,0
18.01.2018 04:00:00 0,6 0,5 0,0
18.01.2018 03:00:00 0,4 0,2 0,0
18.01.2018 02:00:00 0,6 0,2 0,4
18.01.2018 01:00:00 1,6 0,9 0,4
18.01.2018 00:00:00 2,4 0,9 0,0
17.01.2018 23:00:00 2,5 0,4 0,0
17.01.2018 22:00:00 2,8 -0,2 0,0
17.01.2018 21:00:00 2,7 0,0 0,0
17.01.2018 20:00:00 2,6 -0,3 0,0
17.01.2018 19:00:00 2,9 -0,4 0,0
17.01.2018 18:00:00 3,0 -0,4 0,0
17.01.2018 17:00:00 2,7 -0,5 0,0
17.01.2018 16:00:00 2,9 -0,3 0,0
17.01.2018 15:00:00 3,2 -0,2 0,0
17.01.2018 14:00:00 3,9 0,2 0,0
17.01.2018 13:00:00 3,6 -0,1 0,0
17.01.2018 12:00:00 3,9 -0,4 0,0
17.01.2018 11:00:00 2,9 -0,8 0,0
17.01.2018 10:00:00 2,3 -1,6 0,2
17.01.2018 09:00:00 1,8 -2,3 0,0
17.01.2018 08:00:00 1,3 -2,2 0,0
17.01.2018 07:00:00 1,3 -1,9 0,0
17.01.2018 06:00:00 2,0 -1,7 0,0
17.01.2018 05:00:00 1,6 -1,2 0,0
17.01.2018 04:00:00 1,0 -2,5 0,0
17.01.2018 03:00:00 0,5 -2,2 0,0
17.01.2018 02:00:00 0,3 -2,1 0,0
17.01.2018 01:00:00 0,0 -1,4 0,0
17.01.2018 00:00:00 0,6 -2,2 0,0
16.01.2018 23:00:00 0,5 -2,3 0,0
16.01.2018 22:00:00 0,1 -0,7 0,0
16.01.2018 21:00:00 -0,1 -1,0 0,0
16.01.2018 20:00:00 0,5 -0,9 0,0
16.01.2018 19:00:00 0,3 -0,7 0,0
16.01.2018 18:00:00 0,9 -1,0 0,0
16.01.2018 17:00:00 1,1 -0,8 0,0
16.01.2018 16:00:00 0,7 -0,6 0,2
16.01.2018 15:00:00 1,1 -0,2 0,2
16.01.2018 14:00:00 2,0 -0,5 0,0
16.01.2018 13:00:00 2,3 -1,2 0,0
16.01.2018 12:00:00 3,5 -0,6 0,0
16.01.2018 11:00:00 2,7 -0,7 0,0
16.01.2018 10:00:00 2,2 -1,4 0,0
16.01.2018 09:00:00 2,0 -1,7 0,0
16.01.2018 08:00:00 1,8 -1,5 0,0
16.01.2018 07:00:00 1,7 -1,4 0,0
16.01.2018 06:00:00 2,1 -1,5 0,0
16.01.2018 05:00:00 2,0 -1,3 0,0
16.01.2018 04:00:00 2,1 -1,3 0,0
16.01.2018 03:00:00 2,3 -1,5 0,0
16.01.2018 02:00:00 2,7 -1,0 0,0
16.01.2018 01:00:00 3,0 -1,1 0,0
16.01.2018 00:00:00 2,6 -0,4 0,0
15.01.2018 23:00:00 2,9 0,1 0,0
15.01.2018 22:00:00 3,1 -0,2 0,0
15.01.2018 21:00:00 3,2 0,1 0,0
15.01.2018 20:00:00 3,1 -0,1 0,0
15.01.2018 19:00:00 3,7 0,3 0,0
15.01.2018 18:00:00 3,5 0,1 0,0
15.01.2018 17:00:00 3,9 0,4 0,0
15.01.2018 16:00:00 4,6 1,7 0,0
15.01.2018 15:00:00 6,1 2,5 0,0
15.01.2018 14:00:00 6,6 2,9 0,0
15.01.2018 13:00:00 7,3 3,7 0,0
15.01.2018 12:00:00 7,4 4,9 0,0
15.01.2018 11:00:00 6,0 4,8 0,4
15.01.2018 10:00:00 6,4 4,8 0,2
15.01.2018 09:00:00 6,7 5,8 0,2
15.01.2018 08:00:00 7,1 5,2 0,0

tt = Temperatura
td = dewpoint
rr = precipitazioni

Stazioni seguenti

WeatherPro
AMSI
MeteoEarth